Total_Precipitation_Accumulation
0.05 0.09 0.14 0.19 0.17 0.13 0.09 0.06 0.08 0.11 0.21 0.27 0.35 0.30 0.28 0.31 0.28 0.27 0.20 0.15 0.14 0.14 0.14 0.21 0.25 0.29 0.34 0.35 0.46 0.53 0.62 0.65 0.63 0.67 0.72 0.71 0.69 0.69 0.65 0.63 0.63 0.67 0.68 0.67
0.04 0.07 0.10 0.13 0.16 0.11 0.08 0.07 0.06 0.09 0.20 0.27 0.28 0.23 0.25 0.26 0.29 0.26 0.22 0.19 0.20 0.22 0.22 0.22 0.25 0.31 0.36 0.39 0.48 0.61 0.77 0.82 0.83 0.94 0.98 0.98 0.97 0.99 0.93 0.85 0.88 0.94 0.93 0.87
0.07 0.10 0.11 0.15 0.14 0.12 0.12 0.10 0.10 0.14 0.23 0.25 0.29 0.31 0.42 0.43 0.40 0.41 0.34 0.32 0.32 0.33 0.31 0.28 0.28 0.32 0.38 0.44 0.56 0.70 0.86 1.01 1.09 1.18 1.27 1.31 1.32 1.29 1.20 1.19 1.22 1.21 1.13 1.03
0.12 0.15 0.20 0.17 0.17 0.15 0.16 0.18 0.17 0.22 0.29 0.36 0.46 0.52 0.61 0.64 0.53 0.46 0.39 0.34 0.32 0.39 0.39 0.35 0.39 0.46 0.54 0.64 0.77 0.92 1.06 1.22 1.38 1.37 1.37 1.39 1.39 1.30 1.28 1.34 1.36 1.30 1.21 1.12
0.22 0.23 0.21 0.21 0.25 0.25 0.27 0.34 0.35 0.40 0.47 0.57 0.61 0.53 0.51 0.46 0.39 0.32 0.30 0.31 0.31 0.36 0.43 0.49 0.48 0.53 0.62 0.65 0.74 0.91 1.05 1.12 1.19 1.26 1.34 1.41 1.40 1.42 1.44 1.42 1.30 1.16 1.08 1.06
0.35 0.36 0.35 0.34 0.39 0.35 0.35 0.62 0.59 0.54 0.56 0.59 0.61 0.70 0.61 0.46 0.38 0.34 0.30 0.28 0.29 0.30 0.34 0.42 0.51 0.54 0.57 0.64 0.76 0.90 1.02 1.05 1.03 1.12 1.25 1.36 1.41 1.42 1.39 1.35 1.30 1.24 1.14 1.12
0.49 0.50 0.42 0.40 0.35 0.33 0.53 0.70 0.62 0.63 0.66 0.67 0.73 0.76 0.67 0.51 0.42 0.36 0.34 0.31 0.30 0.32 0.32 0.37 0.46 0.52 0.61 0.70 0.76 0.80 0.88 0.97 1.03 1.15 1.26 1.32 1.38 1.38 1.38 1.38 1.40 1.39 1.31 1.23
0.62 0.74 0.71 0.53 0.42 0.55 0.69 0.59 0.67 0.70 0.64 0.64 0.62 0.54 0.48 0.44 0.48 0.44 0.37 0.35 0.35 0.39 0.42 0.42 0.43 0.47 0.54 0.56 0.56 0.61 0.66 0.71 0.75 0.87 1.00 1.07 1.17 1.19 1.24 1.22 1.18 1.17 1.15 1.08
0.79 0.85 0.70 0.62 0.63 0.65 0.62 0.55 0.58 0.64 0.63 0.63 0.63 0.55 0.42 0.38 0.38 0.45 0.45 0.41 0.40 0.41 0.40 0.40 0.41 0.45 0.51 0.53 0.53 0.53 0.53 0.54 0.56 0.63 0.79 0.94 1.00 0.99 1.02 1.04 1.02 0.99 1.00 0.98
0.93 0.96 0.86 0.80 0.75 0.65 0.63 0.60 0.55 0.60 0.70 0.69 0.65 0.55 0.46 0.39 0.31 0.28 0.28 0.27 0.32 0.34 0.36 0.36 0.35 0.37 0.41 0.43 0.47 0.53 0.53 0.53 0.55 0.59 0.72 0.96 1.10 1.06 1.00 0.99 0.96 0.94 0.90 0.90
0.94 1.04 0.89 0.80 0.76 0.75 0.71 0.66 0.62 0.63 0.70 0.70 0.58 0.52 0.47 0.38 0.28 0.23 0.20 0.18 0.20 0.24 0.25 0.24 0.24 0.26 0.31 0.37 0.45 0.48 0.45 0.43 0.43 0.50 0.64 0.86 1.03 1.03 0.91 0.89 0.87 0.87 0.84 0.83
0.89 0.86 0.89 0.90 0.84 0.78 0.79 0.78 0.72 0.68 0.73 0.70 0.58 0.47 0.39 0.30 0.22 0.20 0.19 0.17 0.19 0.23 0.25 0.26 0.27 0.31 0.35 0.41 0.48 0.53 0.51 0.46 0.46 0.49 0.57 0.78 0.99 1.05 0.86 0.70 0.69 0.68 0.64 0.62
0.74 0.71 0.77 0.81 0.80 0.84 0.88 0.85 0.81 0.77 0.74 0.67 0.62 0.48 0.33 0.26 0.20 0.19 0.19 0.19 0.21 0.23 0.25 0.28 0.31 0.30 0.30 0.36 0.44 0.49 0.49 0.45 0.42 0.43 0.47 0.59 0.84 1.09 1.13 0.87 0.66 0.57 0.45 0.36
0.64 0.66 0.74 0.79 0.82 0.88 0.90 0.82 0.78 0.78 0.73 0.66 0.56 0.46 0.35 0.29 0.25 0.23 0.23 0.26 0.30 0.32 0.33 0.35 0.33 0.30 0.30 0.36 0.42 0.44 0.44 0.41 0.39 0.38 0.39 0.47 0.69 0.98 1.18 1.16 1.00 0.74 0.46 0.29
0.65 0.71 0.72 0.67 0.74 0.76 0.76 0.70 0.65 0.69 0.65 0.59 0.50 0.40 0.33 0.31 0.33 0.34 0.35 0.40 0.48 0.46 0.41 0.38 0.36 0.33 0.33 0.38 0.40 0.40 0.41 0.38 0.36 0.36 0.36 0.41 0.59 0.85 1.07 1.15 1.10 0.98 0.70 0.39
0.59 0.62 0.57 0.55 0.65 0.71 0.70 0.64 0.58 0.60 0.56 0.50 0.45 0.39 0.34 0.32 0.33 0.34 0.38 0.50 0.66 0.66 0.54 0.46 0.41 0.38 0.38 0.40 0.39 0.35 0.33 0.28 0.23 0.25 0.28 0.33 0.44 0.68 0.93 1.08 1.04 0.99 0.84 0.49
0.58 0.56 0.51 0.50 0.59 0.70 0.70 0.67 0.62 0.60 0.56 0.51 0.47 0.44 0.42 0.43 0.42 0.45 0.52 0.59 0.63 0.60 0.54 0.51 0.44 0.38 0.37 0.38 0.36 0.31 0.28 0.23 0.16 0.16 0.25 0.31 0.37 0.56 0.81 0.99 0.96 0.89 0.77 0.46
0.47 0.44 0.42 0.41 0.46 0.55 0.56 0.51 0.50 0.50 0.50 0.51 0.49 0.46 0.48 0.53 0.60 0.69 0.75 0.75 0.66 0.52 0.44 0.44 0.39 0.34 0.33 0.30 0.27 0.25 0.24 0.24 0.21 0.22 0.28 0.32 0.37 0.54 0.77 0.91 0.88 0.83 0.74 0.52
0.31 0.32 0.32 0.28 0.28 0.31 0.30 0.30 0.29 0.29 0.31 0.35 0.36 0.35 0.37 0.40 0.51 0.66 0.74 0.84 0.87 0.71 0.49 0.35 0.31 0.27 0.25 0.20 0.20 0.21 0.20 0.22 0.22 0.25 0.29 0.28 0.39 0.57 0.72 0.80 0.79 0.75 0.65 0.54
0.24 0.24 0.23 0.21 0.19 0.19 0.20 0.19 0.18 0.18 0.21 0.26 0.25 0.23 0.24 0.29 0.43 0.62 0.74 0.84 0.91 0.80 0.58 0.39 0.28 0.22 0.17 0.13 0.13 0.18 0.21 0.24 0.27 0.29 0.31 0.38 0.48 0.61 0.67 0.67 0.65 0.63 0.60 0.60
0.21 0.20 0.17 0.14 0.11 0.09 0.10 0.09 0.07 0.09 0.14 0.17 0.16 0.14 0.18 0.24 0.35 0.57 0.87 1.06 0.93 0.73 0.56 0.42 0.30 0.20 0.14 0.13 0.12 0.15 0.19 0.23 0.29 0.35 0.39 0.44 0.54 0.63 0.65 0.62 0.57 0.54 0.56 0.59
0.20 0.17 0.14 0.11 0.08 0.07 0.07 0.07 0.06 0.08 0.10 0.11 0.11 0.13 0.17 0.26 0.36 0.48 0.68 0.98 1.02 0.89 0.63 0.44 0.31 0.20 0.15 0.13 0.12 0.14 0.17 0.20 0.25 0.31 0.35 0.39 0.49 0.58 0.57 0.52 0.48 0.48 0.51 0.58
0.20 0.15 0.13 0.10 0.08 0.07 0.06 0.05 0.05 0.07 0.07 0.09 0.10 0.13 0.18 0.27 0.40 0.65 0.78 0.74 0.82 0.91 0.69 0.48 0.38 0.27 0.18 0.14 0.17 0.18 0.19 0.24 0.31 0.34 0.32 0.35 0.38 0.44 0.47 0.45 0.46 0.48 0.53 0.54
0.19 0.14 0.11 0.08 0.07 0.08 0.08 0.06 0.06 0.08 0.08 0.08 0.07 0.09 0.15 0.27 0.35 0.48 0.66 0.73 0.76 0.81 0.64 0.47 0.37 0.28 0.21 0.19 0.23 0.28 0.34 0.41 0.42 0.37 0.32 0.33 0.35 0.39 0.45 0.45 0.42 0.46 0.50 0.52
0.16 0.11 0.08 0.06 0.06 0.07 0.06 0.05 0.06 0.08 0.07 0.08 0.08 0.10 0.12 0.20 0.36 0.51 0.61 0.68 0.79 0.83 0.71 0.56 0.43 0.36 0.31 0.32 0.37 0.47 0.54 0.47 0.40 0.35 0.31 0.31 0.36 0.41 0.43 0.46 0.49 0.49 0.49 0.49
0.11 0.09 0.08 0.07 0.06 0.06 0.05 0.05 0.07 0.08 0.09 0.11 0.12 0.13 0.17 0.22 0.31 0.43 0.54 0.59 0.66 0.76 0.71 0.53 0.37 0.34 0.35 0.40 0.45 0.50 0.49 0.43 0.38 0.36 0.35 0.36 0.40 0.43 0.43 0.46 0.50 0.49 0.49 0.50
0.09 0.09 0.10 0.08 0.07 0.07 0.07 0.10 0.11 0.12 0.14 0.19 0.23 0.26 0.28 0.32 0.36 0.43 0.49 0.54 0.56 0.56 0.52 0.41 0.31 0.30 0.30 0.31 0.36 0.39 0.40 0.40 0.40 0.39 0.40 0.42 0.43 0.45 0.42 0.40 0.40 0.40 0.39 0.40